Del Bajio, Mexico

12:45 AM CDT on May 28, 2018 (GMT -0500)
De Guanajuato International

Weather History for MMLO - October, 2012

Change the Weather History Date:

Saturday, October 27, 2012

  Actual Average Record
Temperature  
Mean Temperature 68 °F -  
Max Temperature 86 °F 78 °F 87 °F (2013)
Min Temperature 50 °F 49 °F 33 °F (1999)
Cooling Degree Days 3    
Growing Degree Days 18 (Base 50)    
Moisture  
Dew Point 47 °F    
Average Humidity 49    
Maximum Humidity 87    
Minimum Humidity 25    
Precipitation  
Precipitation 0.00 in - - ()
Sea Level Pressure  
Sea Level Pressure 30.03 in    
Wind  
Wind Speed 4 mph ()    
Max Wind Speed 14 mph    
Max Gust Speed -    
Visibility 8.8 miles    
Events      
Averages and records for this station are not official NWS values.
T = Trace of Precipitation, MM = Missing Value Source: Averaged Metar Reports

Daily Weather History Graph

Daily Weather History Graph

Search for Another Location

Airport or City:

Astronomy

Oct. 27, 2012 Rise Set
Actual Time 7:46 AM CDT 7:12 PM CDT
Civil Twilight 7:23 AM CDT 7:35 PM CDT
Nautical Twilight 6:57 AM CDT 8:01 PM CDT
Astronomical Twilight 6:31 AM CDT 8:27 PM CDT
Moon 5:52 PM CDT (10/27) 5:54 AM CDT (10/27)
Length of Visible Light 12h 11m
Length of Day
11h 26m
Waxing Gibbous, 96% of the Moon is Illuminated
Oct 27
Waxing Gibbous
Oct 29
Full
Nov 6
Last Quarter
Nov 13
New
Nov 20
First Quarter

Hourly Weather History & Observations

Time (CDT) Temp. Dew Point Humidity Pressure Visibility Wind Dir Wind Speed Gust Speed Precip Events Conditions
12:40 AM 64.4 °F 44.6 °F 49% 29.72 in 8.0 mi ENE 10.4 mph - N/A   Clear
1:42 AM 62.6 °F 42.8 °F 48% 30.12 in 8.0 mi NE 10.4 mph - N/A   Clear
3:40 AM 57.2 °F 44.6 °F 63% 29.70 in 8.0 mi ENE 3.5 mph - N/A   Clear
4:41 AM 55.4 °F 48.2 °F 77% 30.18 in 8.0 mi NE 3.5 mph - N/A   Clear
5:44 AM 53.6 °F 48.2 °F 82% 30.18 in 7.0 mi Calm Calm - N/A   Clear
6:44 AM 51.8 °F 46.4 °F 82% 29.80 in 7.0 mi SSE 3.5 mph - N/A   Clear
7:44 AM 50.0 °F 46.4 °F 87% 30.21 in 8.0 mi Calm Calm - N/A   Clear
8:47 AM 59.0 °F 48.2 °F 67% 30.24 in 9.0 mi Calm Calm - N/A   Clear
9:40 AM 66.2 °F 46.4 °F 49% 29.88 in 9.0 mi Calm Calm - N/A   Clear
10:51 AM 71.6 °F 48.2 °F 43% 30.24 in 10.0 mi Calm Calm - N/A   Clear
11:42 AM 75.2 °F 46.4 °F 36% 30.24 in 10.0 mi Calm Calm - N/A   Clear
12:49 PM 80.6 °F 46.4 °F 30% 29.77 in 10.0 mi Calm Calm - N/A   Clear
1:41 PM 82.4 °F 46.4 °F 28% 30.15 in 10.0 mi SSE 6.9 mph - N/A   Partly Cloudy
2:43 PM 84.2 °F 46.4 °F 27% 30.12 in 10.0 mi South 13.8 mph - N/A   Partly Cloudy
3:42 PM 86.0 °F 46.4 °F 25% 29.70 in 10.0 mi ESE 6.9 mph - N/A   Scattered Clouds
4:46 PM 86.0 °F 46.4 °F 25% 30.09 in 10.0 mi Calm Calm - N/A   Scattered Clouds
5:42 PM 84.2 °F 44.6 °F 25% 30.09 in 10.0 mi Calm Calm - N/A   Scattered Clouds
6:42 PM 78.8 °F 44.6 °F 30% 29.75 in 10.0 mi Calm Calm - N/A   Mostly Cloudy
7:44 PM 73.4 °F 48.2 °F 41% 30.12 in 8.0 mi ENE 8.1 mph - N/A   Mostly Cloudy
8:41 PM 69.8 °F 48.2 °F 46% 30.15 in 8.0 mi ENE 3.5 mph - N/A   Scattered Clouds
9:47 PM 66.2 °F 50.0 °F 56% 29.81 in 8.0 mi NE 8.1 mph - N/A   Scattered Clouds
10:48 PM 64.4 °F 48.2 °F 56% 30.18 in 8.0 mi NE 9.2 mph - N/A   Mostly Cloudy
11:51 PM 64.4 °F 48.2 °F 56% 30.19 in 8.0 mi ENE 6.9 mph - N/A   Scattered Clouds